Location: Alphaba - Cockrum - Ingrams Mill Volunteer Fire Department Station 2
(34.7915°N, 89.7598°W)
Time: 08:51:53
(UTC+00:00)

NOSS 2-3 (C) - Pass Details

Date: 11 December 2025
Orbit: 458 x 1718 km, 63.3° (Epoch: 24 January)

Event Time Altitude Azimuth Distance (km) Brightness Sun altitude
Rises 23:36:34 0° 222° (SW) 2,621 8.0 -9.8°
Reaches altitude 10° 23:38:52 10° 228° (SW) 1,658 7.0 -10.3°
Maximum altitude 23:42:17 47° 303° (WNW) 620 3.9 -10.9°
Drops below altitude 10° 23:45:38 10° 19° (NNE) 1,617 5.3 -11.6°
Enters shadow 23:46:04 - 21° (NNE) 1,791 5.6 -11.7°
